Weather WX

World > North America > United States > North Dakota

Heil, North Dakota Regional Weather

Lat: 46.39N, Lon: 101.7W
Wx Zone: NDZ042
Warning FLW WEATHER ALERT - (More Info. Click Here) Warning
Feedback

Heil, ND Regional Weather

Expires:201907191100;;295476
ASUS43 KBIS 191010
RWRND 

NORTH DAKOTA REGIONAL WEATHER ROUNDUP
NATIONAL WEATHER SERVICE BISMARCK ND
500 AM CDT FRI JUL 19 2019

NOTE: "FAIR" INDICATES FEW OR NO CLOUDS BELOW 12,000 FEET WITH NO
SIGNIFICANT WEATHER AND/OR OBSTRUCTIONS TO VISIBILITY.



NDZ018>021-031>035-040>046-191100-
SOUTHWEST NORTH DAKOTA
  
CITY           SKY/WX    TMP DP  RH WIND       PRES   REMARKS
BISMARCK       TSTM      70  62  76 NW7       29.70R                  
DICKINSON      CLOUDY    62  56  80 NW7       29.72R                  
GARRISON         N/A     64  62  93 CALM      29.66S                  
HETTINGER ARPT CLOUDY    65  63  93 MISG      29.74S                  
$$
 

SKY/WX - Weather  TMP - Temperature  DP - Dew Point  RH - Relative Humidity
WIND - Wind Direction/Speed PRES - Barometric Pressure VSB - Visibility
WCI - Wind Chill Index E13G22 Wind - East Wind 13 mph/Gusts of 22 mph